Tracking 19247 objects as of 25-Sep-2018
HD Live streaming from Space Station
objects crossing your sky now

USA 136

Track USA 136 now!
USA 136 is classified as:


NORAD ID: 25034
Int'l Code: 1997-068A
Perigee: 4,023.9 km
Apogee: 36,349.3 km
Inclination: 63.4 °
Period: 717.9 minutes
Semi major axis: 26557 km
RCS: Unknown
Launch date: November 8, 1997
Source: United States (US)
Launch site: AIR FORCE EASTERN TEST RANGE (AFETR)

Signals intelligence; surveillance of cellular phones.
aabbcc
Your satellite tracking list
Your tracking list is empty




NASA's NSSDC Master Catalog

Two Line Element Set (TLE):
1 25034U 97068A   18260.62401661 0.00000000  00000-0  00000-0 0    00
2 25034  63.3818 184.9780 6085909 283.4923  18.9449  2.00595000    06
Source of the keplerian elements: McCants